| time (UTC) | temp C | wind direction | speed KPH | gust KPH | rain 1hr cm | rain 24hr cm | rain mn cm | humidity % | barometer mb |
| 20260506123009 | 18 | 109 | 0.0 | 0.0 | 0.00 | 0.00 | 0.00 | 73 | 1008.6 |
| 20260506122506 | 18 | 103 | 0.0 | 1.6 | 0.00 | 0.00 | 0.00 | 73 | 1008.6 |
| 20260506122004 | 18 | 111 | 0.0 | 0.0 | 0.00 | 0.00 | 0.00 | 73 | 1008.8 |
| 20260506121501 | 18 | 113 | 0.0 | 1.6 | 0.00 | 0.00 | 0.00 | 73 | 1008.8 |
| 20260506120958 | 18 | 92 | 0.0 | 0.0 | 0.00 | 0.00 | 0.00 | 73 | 1008.8 |
| 20260506120455 | 18 | 115 | 0.0 | 1.6 | 0.00 | 0.00 | 0.00 | 73 | 1008.9 |
| 20260506115952 | 18 | 105 | 0.0 | 0.0 | 0.00 | 0.00 | 0.00 | 73 | 1008.8 |
| 20260506115450 | 18 | 103 | 1.6 | 1.6 | 0.00 | 0.00 | 0.00 | 73 | 1009.0 |
| 20260506114949 | 18 | 103 | 0.0 | 0.0 | 0.00 | 0.00 | 0.00 | 73 | 1009.2 |
| 20260506114446 | 18 | 109 | 0.0 | 0.0 | 0.00 | 0.00 | 0.00 | 74 | 1009.0 |
| 20260506113944 | 18 | 124 | 1.6 | 1.6 | 0.00 | 0.00 | 0.00 | 74 | 1009.2 |
| 20260506113442 | 18 | 125 | 1.6 | 1.6 | 0.00 | 0.00 | 0.00 | 74 | 1008.9 |
| 20260506112937 | 18 | 122 | 1.6 | 1.6 | 0.00 | 0.00 | 0.00 | 74 | 1008.9 |
| 20260506112435 | 18 | 143 | 1.6 | 3.2 | 0.00 | 0.00 | 0.00 | 73 | 1008.9 |
| 20260506111932 | 18 | 105 | 0.0 | 1.6 | 0.00 | 0.00 | 0.00 | 74 | 1009.2 |
| 20260506111431 | 18 | 126 | 0.0 | 1.6 | 0.00 | 0.00 | 0.00 | 74 | 1008.8 |
| 20260506110927 | 18 | 110 | 1.6 | 3.2 | 0.00 | 0.00 | 0.00 | 74 | 1008.8 |
| 20260506110425 | 18 | 118 | 0.0 | 0.0 | 0.00 | 0.00 | 0.00 | 74 | 1008.8 |
| 20260506105921 | 18 | 108 | 0.0 | 0.0 | 0.00 | 0.00 | 0.00 | 75 | 1008.7 |
| 20260506105418 | 18 | 118 | 0.0 | 1.6 | 0.00 | 0.00 | 0.00 | 74 | 1008.5 |
| 20260506104916 | 18 | 111 | 0.0 | 0.0 | 0.00 | 0.00 | 0.00 | 74 | 1008.6 |
| 20260506104414 | 17 | 96 | 0.0 | 0.0 | 0.00 | 0.00 | 0.00 | 76 | 1009.0 |
| 20260506103912 | 17 | 103 | 0.0 | 0.0 | 0.00 | 0.00 | 0.00 | 76 | 1008.9 |
| 20260506103409 | 17 | 108 | 0.0 | 0.0 | 0.00 | 0.00 | 0.00 | 76 | 1008.8 |
| 20260506102906 | 17 | 118 | 0.0 | 0.0 | 0.00 | 0.00 | 0.00 | 76 | 1008.6 |
| 20260506102404 | 17 | 114 | 0.0 | 0.0 | 0.00 | 0.00 | 0.00 | 76 | 1008.7 |
| 20260506101901 | 17 | 107 | 0.0 | 0.0 | 0.00 | 0.00 | 0.00 | 77 | 1008.7 |
| 20260506101357 | 17 | 112 | 0.0 | 1.6 | 0.00 | 0.00 | 0.00 | 77 | 1008.8 |
| 20260506100854 | 17 | 137 | 1.6 | 1.6 | 0.00 | 0.00 | 0.00 | 78 | 1008.6 |
| 20260506100353 | 17 | 119 | 0.0 | 0.0 | 0.00 | 0.00 | 0.00 | 78 | 1008.5 |
| 20260506095850 | 17 | 124 | 1.6 | 1.6 | 0.00 | 0.00 | 0.00 | 78 | 1008.6 |
| 20260506095348 | 17 | 108 | 0.0 | 1.6 | 0.00 | 0.00 | 0.00 | 78 | 1008.5 |
| 20260506094844 | 17 | 130 | 0.0 | 0.0 | 0.00 | 0.00 | 0.00 | 78 | 1008.5 |
| 20260506094343 | 17 | 112 | 0.0 | 0.0 | 0.00 | 0.00 | 0.00 | 78 | 1008.5 |
| 20260506093840 | 17 | 107 | 0.0 | 0.0 | 0.00 | 0.00 | 0.00 | 78 | 1008.5 |
| 20260506093337 | 17 | 113 | 0.0 | 0.0 | 0.00 | 0.00 | 0.00 | 78 | 1008.6 |
| 20260506092835 | 17 | 72 | 0.0 | 1.6 | 0.00 | 0.00 | 0.00 | 78 | 1008.6 |
| 20260506092334 | 17 | 112 | 0.0 | 0.0 | 0.00 | 0.00 | 0.00 | 78 | 1008.5 |
| 20260506091830 | 17 | 115 | 0.0 | 0.0 | 0.00 | 0.00 | 0.00 | 78 | 1008.7 |
| 20260506091328 | 17 | 114 | 0.0 | 0.0 | 0.00 | 0.00 | 0.00 | 78 | 1008.8 |
| 20260506090825 | 17 | 102 | 0.0 | 0.0 | 0.00 | 0.00 | 0.00 | 78 | 1008.8 |
| 20260506090322 | 17 | 114 | 0.0 | 0.0 | 0.00 | 0.00 | 0.00 | 78 | 1008.7 |
| 20260506085818 | 17 | 112 | 0.0 | 0.0 | 0.00 | 0.00 | 0.00 | 78 | 1008.9 |
| 20260506085315 | 17 | 111 | 0.0 | 0.0 | 0.00 | 0.00 | 0.00 | 77 | 1008.8 |
| 20260506084811 | 17 | 106 | 0.0 | 0.0 | 0.00 | 0.00 | 0.00 | 77 | 1008.7 |
| 20260506084308 | 17 | 121 | 0.0 | 0.0 | 0.00 | 0.00 | 0.00 | 77 | 1008.9 |
| 20260506083805 | 17 | 115 | 0.0 | 0.0 | 0.00 | 0.00 | 0.00 | 76 | 1008.9 |
| 20260506083302 | 17 | 129 | 1.6 | 1.6 | 0.00 | 0.00 | 0.00 | 76 | 1008.9 |
| 20260506082759 | 17 | 116 | 0.0 | 0.0 | 0.00 | 0.00 | 0.00 | 76 | 1008.9 |
| 20260506082255 | 17 | 112 | 0.0 | 0.0 | 0.00 | 0.00 | 0.00 | 75 | 1008.8 |
| 20260506081753 | 17 | 127 | 0.0 | 0.0 | 0.00 | 0.00 | 0.00 | 75 | 1008.8 |
| 20260506081250 | 17 | 123 | 0.0 | 0.0 | 0.00 | 0.00 | 0.00 | 74 | 1008.8 |
| 20260506080748 | 17 | 113 | 0.0 | 0.0 | 0.00 | 0.00 | 0.00 | 75 | 1008.9 |
| 20260506080244 | 17 | 112 | 0.0 | 0.0 | 0.00 | 0.00 | 0.00 | 74 | 1008.9 |
| 20260506073228 | 18 | 112 | 1.6 | 1.6 | 0.00 | 0.00 | 0.00 | 72 | 1008.9 |
| 20260506072725 | 18 | 104 | 0.0 | 0.0 | 0.00 | 0.00 | 0.00 | 72 | 1008.9 |
| 20260506072223 | 18 | 111 | 0.0 | 0.0 | 0.00 | 0.00 | 0.00 | 72 | 1008.8 |
| 20260506071720 | 18 | 111 | 0.0 | 0.0 | 0.00 | 0.00 | 0.00 | 71 | 1009.0 |
| 20260506071218 | 18 | 109 | 0.0 | 0.0 | 0.00 | 0.00 | 0.00 | 71 | 1009.2 |
| 20260506070714 | 18 | 111 | 0.0 | 0.0 | 0.00 | 0.00 | 0.00 | 70 | 1009.0 |
| 20260506070212 | 18 | 116 | 0.0 | 1.6 | 0.00 | 0.00 | 0.00 | 69 | 1009.0 |
| 20260506062148 | 18 | 106 | 0.0 | 0.0 | 0.00 | 0.00 | 0.00 | 67 | 1009.3 |
| 20260506061644 | 18 | 108 | 0.0 | 0.0 | 0.00 | 0.00 | 0.00 | 67 | 1009.3 |
| 20260506061142 | 18 | 100 | 0.0 | 1.6 | 0.00 | 0.00 | 0.00 | 67 | 1009.0 |
| 20260506060640 | 18 | 104 | 0.0 | 0.0 | 0.00 | 0.00 | 0.00 | 67 | 1009.3 |
| 20260506060137 | 18 | 129 | 0.0 | 1.6 | 0.00 | 0.00 | 0.00 | 66 | 1009.2 |
| 20260506051109 | 19 | 120 | 0.0 | 0.0 | 0.00 | 0.00 | 0.00 | 63 | 1009.7 |
| 20260506050607 | 19 | 112 | 0.0 | 0.0 | 0.00 | 0.00 | 0.00 | 63 | 1009.8 |
| 20260506050104 | 19 | 114 | 0.0 | 0.0 | 0.00 | 0.00 | 0.00 | 62 | 1009.8 |
| 20260506045057 | 20 | 124 | 1.6 | 1.6 | 0.00 | 0.00 | 0.00 | 62 | 1010.0 |
| 20260506044555 | 20 | 106 | 0.0 | 0.0 | 0.00 | 0.00 | 0.00 | 61 | 1009.8 |
| 20260506044052 | 20 | 123 | 0.0 | 0.0 | 0.00 | 0.00 | 0.00 | 61 | 1009.7 |
| 20260506043549 | 20 | 103 | 0.0 | 0.0 | 0.00 | 0.00 | 0.00 | 61 | 1009.7 |
| 20260506043047 | 20 | 121 | 0.0 | 0.0 | 0.00 | 0.00 | 0.00 | 61 | 1009.8 |
| 20260506042546 | 20 | 126 | 1.6 | 1.6 | 0.00 | 0.00 | 0.00 | 60 | 1009.9 |
| 20260506042043 | 20 | 108 | 0.0 | 0.0 | 0.00 | 0.00 | 0.00 | 60 | 1009.8 |
| 20260506041542 | 20 | 107 | 0.0 | 0.0 | 0.00 | 0.00 | 0.00 | 60 | 1009.9 |
| 20260506041038 | 20 | 91 | 0.0 | 1.6 | 0.00 | 0.00 | 0.00 | 60 | 1009.9 |
| 20260506040536 | 20 | 132 | 1.6 | 1.6 | 0.00 | 0.00 | 0.00 | 59 | 1009.9 |
| 20260506040032 | 20 | 111 | 0.0 | 1.6 | 0.00 | 0.00 | 0.00 | 60 | 1009.8 |
| 20260506035529 | 20 | 111 | 3.2 | 3.2 | 0.00 | 0.00 | 0.00 | 59 | 1009.8 |
| 20260506035026 | 20 | 97 | 0.0 | 0.0 | 0.00 | 0.00 | 0.00 | 59 | 1009.8 |
| 20260506034523 | 20 | 112 | 0.0 | 0.0 | 0.00 | 0.00 | 0.00 | 59 | 1009.7 |
| 20260506034020 | 20 | 131 | 0.0 | 0.0 | 0.00 | 0.00 | 0.00 | 59 | 1009.9 |
| 20260506033518 | 20 | 129 | 1.6 | 1.6 | 0.00 | 0.00 | 0.00 | 58 | 1009.8 |
| 20260506033015 | 20 | 145 | 1.6 | 1.6 | 0.00 | 0.00 | 0.00 | 58 | 1009.9 |
| 20260506032512 | 20 | 72 | 1.6 | 1.6 | 0.00 | 0.00 | 0.00 | 57 | 1009.7 |
| 20260506032008 | 20 | 110 | 0.0 | 1.6 | 0.00 | 0.00 | 0.00 | 57 | 1009.9 |
| 20260506031506 | 20 | 109 | 1.6 | 1.6 | 0.00 | 0.00 | 0.00 | 57 | 1009.8 |
| 20260506031003 | 21 | 124 | 1.6 | 1.6 | 0.00 | 0.00 | 0.00 | 56 | 1009.9 |
| 20260506030501 | 21 | 122 | 0.0 | 1.6 | 0.00 | 0.00 | 0.00 | 56 | 1009.7 |
| 20260506025958 | 21 | 174 | 1.6 | 3.2 | 0.00 | 0.00 | 0.00 | 55 | 1009.9 |
| 20260506025454 | 21 | 126 | 1.6 | 1.6 | 0.00 | 0.00 | 0.00 | 55 | 1009.7 |
| 20260506024951 | 21 | 145 | 0.0 | 1.6 | 0.00 | 0.00 | 0.00 | 54 | 1009.8 |
| 20260506024448 | 21 | 121 | 1.6 | 1.6 | 0.00 | 0.00 | 0.00 | 53 | 1009.7 |
| 20260506023943 | 21 | 133 | 0.0 | 1.6 | 0.00 | 0.00 | 0.00 | 52 | 1009.7 |
| 20260506023441 | 21 | 119 | 0.0 | 0.0 | 0.00 | 0.00 | 0.00 | 51 | 1009.7 |
| 20260506022937 | 22 | 119 | 0.0 | 1.6 | 0.00 | 0.00 | 0.00 | 51 | 1009.8 |
| 20260506022435 | 22 | 117 | 0.0 | 1.6 | 0.00 | 0.00 | 0.00 | 49 | 1009.6 |
| 20260506021933 | 22 | 120 | 1.6 | 1.6 | 0.00 | 0.00 | 0.00 | 48 | 1009.7 |
| 20260506021430 | 22 | 95 | 1.6 | 3.2 | 0.00 | 0.00 | 0.00 | 48 | 1009.7 |
| 20260506020927 | 22 | 118 | 3.2 | 3.2 | 0.00 | 0.00 | 0.00 | 47 | 1009.7 |
| 20260506020425 | 22 | 180 | 3.2 | 4.8 | 0.00 | 0.00 | 0.00 | 46 | 1009.4 |
| 20260506015921 | 22 | 93 | 0.0 | 0.0 | 0.00 | 0.00 | 0.00 | 46 | 1009.4 |
| 20260506015419 | 23 | 147 | 1.6 | 3.2 | 0.00 | 0.00 | 0.00 | 45 | 1009.5 |
| 20260506014916 | 23 | 108 | 0.0 | 1.6 | 0.00 | 0.00 | 0.00 | 44 | 1009.6 |
| 20260506014413 | 23 | 111 | 0.0 | 1.6 | 0.00 | 0.00 | 0.00 | 44 | 1009.4 |
| 20260506013909 | 23 | 110 | 0.0 | 1.6 | 0.00 | 0.00 | 0.00 | 43 | 1009.3 |
| 20260506013408 | 23 | 111 | 1.6 | 1.6 | 0.00 | 0.00 | 0.00 | 43 | 1009.4 |
| 20260506012903 | 23 | 107 | 0.0 | 0.0 | 0.00 | 0.00 | 0.00 | 42 | 1009.0 |
| 20260506012400 | 23 | 114 | 0.0 | 0.0 | 0.00 | 0.00 | 0.00 | 42 | 1009.2 |
| 20260506011857 | 23 | 113 | 1.6 | 1.6 | 0.00 | 0.00 | 0.00 | 42 | 1008.9 |
| 20260506011354 | 23 | 137 | 1.6 | 1.6 | 0.00 | 0.00 | 0.00 | 42 | 1009.0 |
| 20260506010851 | 23 | 115 | 1.6 | 3.2 | 0.00 | 0.00 | 0.00 | 42 | 1009.0 |
| 20260506010350 | 23 | 180 | 0.0 | 1.6 | 0.00 | 0.00 | 0.00 | 41 | 1008.8 |
| 20260506005846 | 23 | 142 | 0.0 | 0.0 | 0.00 | 0.00 | 0.00 | 41 | 1008.9 |
| 20260506005343 | 23 | 109 | 1.6 | 1.6 | 0.00 | 0.00 | 0.00 | 40 | 1008.8 |
| 20260506004838 | 24 | 114 | 0.0 | 0.0 | 0.00 | 0.00 | 0.00 | 40 | 1008.7 |
| 20260506004337 | 24 | 115 | 0.0 | 1.6 | 0.00 | 0.00 | 0.00 | 39 | 1008.7 |
| 20260506003832 | 24 | 110 | 1.6 | 1.6 | 0.00 | 0.00 | 0.00 | 38 | 1008.7 |
| 20260506003329 | 24 | 329 | 1.6 | 1.6 | 0.00 | 0.00 | 0.00 | 38 | 1008.7 |
| 20260506002825 | 24 | 124 | 1.6 | 1.6 | 0.00 | 0.00 | 0.00 | 37 | 1008.5 |
| 20260506002322 | 25 | 115 | 1.6 | 1.6 | 0.00 | 0.00 | 0.00 | 36 | 1008.3 |
| 20260506001817 | 25 | 120 | 0.0 | 1.6 | 0.00 | 0.00 | 0.00 | 36 | 1008.3 |
| 20260506001315 | 25 | 114 | 0.0 | 0.0 | 0.00 | 0.00 | 0.00 | 35 | 1008.4 |
| 20260506000812 | 25 | 110 | 0.0 | 0.0 | 0.00 | 0.00 | 0.00 | 36 | 1008.5 |
| 20260506000310 | 25 | 113 | 0.0 | 1.6 | 0.00 | 0.00 | 0.00 | 35 | 1008.4 |
| 20260505235806 | 25 | 114 | 0.0 | 0.0 | 0.00 | 0.00 | 0.00 | 35 | 1008.3 |
| 20260505235305 | 25 | 116 | 0.0 | 0.0 | 0.00 | 0.00 | 0.00 | 34 | 1008.2 |
| 20260505234800 | 25 | 124 | 1.6 | 1.6 | 0.00 | 0.00 | 0.00 | 34 | 1008.2 |
| 20260505234258 | 25 | 140 | 1.6 | 1.6 | 0.00 | 0.00 | 0.00 | 33 | 1008.2 |
| 20260505233755 | 25 | 152 | 3.2 | 3.2 | 0.00 | 0.00 | 0.00 | 33 | 1008.1 |
| 20260505233253 | 25 | 151 | 1.6 | 3.2 | 0.00 | 0.00 | 0.00 | 33 | 1008.1 |
| 20260505232750 | 25 | 134 | 1.6 | 1.6 | 0.00 | 0.00 | 0.00 | 33 | 1008.2 |
| 20260505232247 | 25 | 135 | 3.2 | 4.8 | 0.00 | 0.00 | 0.00 | 32 | 1007.9 |
| 20260505231743 | 25 | 130 | 1.6 | 3.2 | 0.00 | 0.00 | 0.00 | 32 | 1007.8 |
| 20260505231242 | 25 | 120 | 1.6 | 1.6 | 0.00 | 0.00 | 0.00 | 32 | 1007.8 |
| 20260505230740 | 26 | 133 | 1.6 | 1.6 | 0.00 | 0.00 | 0.00 | 31 | 1007.7 |
| 20260505230237 | 26 | 131 | 3.2 | 3.2 | 0.00 | 0.00 | 0.00 | 31 | 1007.7 |
| 20260505225733 | 26 | 105 | 0.0 | 1.6 | 0.00 | 0.00 | 0.00 | 31 | 1007.8 |
| 20260505225230 | 26 | 134 | 1.6 | 1.6 | 0.00 | 0.00 | 0.00 | 30 | 1007.7 |
| 20260505224725 | 26 | 109 | 0.0 | 0.0 | 0.00 | 0.00 | 0.00 | 30 | 1007.8 |
| 20260505224223 | 26 | 141 | 0.0 | 1.6 | 0.00 | 0.00 | 0.00 | 30 | 1007.6 |
| 20260505223721 | 26 | 111 | 1.6 | 3.2 | 0.00 | 0.00 | 0.00 | 29 | 1007.5 |
| 20260505223217 | 27 | 170 | 3.2 | 4.8 | 0.00 | 0.00 | 0.00 | 29 | 1007.5 |
| 20260505222713 | 27 | 127 | 3.2 | 3.2 | 0.00 | 0.00 | 0.00 | 29 | 1007.7 |
| 20260505222209 | 27 | 276 | 0.0 | 1.6 | 0.00 | 0.00 | 0.00 | 29 | 1007.6 |
| 20260505221707 | 27 | 201 | 1.6 | 1.6 | 0.00 | 0.00 | 0.00 | 29 | 1007.3 |
| 20260505221203 | 27 | 108 | 0.0 | 1.6 | 0.00 | 0.00 | 0.00 | 29 | 1007.4 |
| 20260505220700 | 27 | 141 | 1.6 | 1.6 | 0.00 | 0.00 | 0.00 | 29 | 1007.7 |
| 20260505220158 | 27 | 334 | 1.6 | 1.6 | 0.00 | 0.00 | 0.00 | 30 | 1007.4 |
| 20260505215655 | 27 | 129 | 1.6 | 3.2 | 0.00 | 0.00 | 0.00 | 29 | 1007.2 |
| 20260505215153 | 27 | 197 | 1.6 | 1.6 | 0.00 | 0.00 | 0.00 | 29 | 1007.3 |
| 20260505214651 | 27 | 98 | 1.6 | 1.6 | 0.00 | 0.00 | 0.00 | 29 | 1007.3 |
| 20260505214148 | 27 | 136 | 1.6 | 1.6 | 0.00 | 0.00 | 0.00 | 30 | 1007.2 |
| 20260505213645 | 27 | 102 | 0.0 | 1.6 | 0.00 | 0.00 | 0.00 | 30 | 1007.1 |
| 20260505213142 | 27 | 90 | 1.6 | 3.2 | 0.00 | 0.00 | 0.00 | 30 | 1007.2 |
| 20260505212638 | 28 | 168 | 1.6 | 1.6 | 0.00 | 0.00 | 0.00 | 30 | 1006.8 |
| 20260505212136 | 28 | 201 | 1.6 | 3.2 | 0.00 | 0.00 | 0.00 | 29 | 1006.9 |
| 20260505211632 | 28 | 114 | 0.0 | 1.6 | 0.00 | 0.00 | 0.00 | 29 | 1006.8 |
| 20260505211130 | 28 | 132 | 3.2 | 3.2 | 0.00 | 0.00 | 0.00 | 28 | 1006.7 |
| 20260505210626 | 27 | 114 | 3.2 | 4.8 | 0.00 | 0.00 | 0.00 | 29 | 1006.7 |
| 20260505210123 | 27 | 186 | 1.6 | 1.6 | 0.00 | 0.00 | 0.00 | 30 | 1006.9 |
| 20260505205620 | 27 | 140 | 1.6 | 1.6 | 0.00 | 0.00 | 0.00 | 29 | 1006.9 |
| 20260505205119 | 27 | 220 | 3.2 | 4.8 | 0.00 | 0.00 | 0.00 | 29 | 1006.8 |
| 20260505204615 | 27 | 131 | 0.0 | 0.0 | 0.00 | 0.00 | 0.00 | 29 | 1007.0 |
| 20260505204113 | 28 | 116 | 3.2 | 3.2 | 0.00 | 0.00 | 0.00 | 29 | 1007.1 |
| 20260505203609 | 28 | 122 | 1.6 | 1.6 | 0.00 | 0.00 | 0.00 | 29 | 1007.0 |
| 20260505203107 | 28 | 107 | 1.6 | 3.2 | 0.00 | 0.00 | 0.00 | 28 | 1007.2 |
| 20260505202602 | 28 | 120 | 3.2 | 4.8 | 0.00 | 0.00 | 0.00 | 29 | 1007.2 |
| 20260505202058 | 28 | 153 | 3.2 | 3.2 | 0.00 | 0.00 | 0.00 | 29 | 1007.4 |
| 20260505201555 | 28 | 174 | 4.8 | 6.4 | 0.00 | 0.00 | 0.00 | 29 | 1007.2 |
| 20260505201053 | 27 | 101 | 3.2 | 4.8 | 0.00 | 0.00 | 0.00 | 29 | 1007.1 |
| 20260505200550 | 28 | 126 | 1.6 | 3.2 | 0.00 | 0.00 | 0.00 | 30 | 1007.2 |
| 20260505200047 | 28 | 99 | 0.0 | 1.6 | 0.00 | 0.00 | 0.00 | 30 | 1007.1 |
| 20260505195543 | 28 | 174 | 6.4 | 11.3 | 0.00 | 0.00 | 0.00 | 32 | 1007.2 |
| 20260505195041 | 28 | 130 | 1.6 | 1.6 | 0.00 | 0.00 | 0.00 | 31 | 1007.2 |
| 20260505194538 | 28 | 138 | 1.6 | 3.2 | 0.00 | 0.00 | 0.00 | 30 | 1007.2 |
| 20260505194033 | 28 | 113 | 3.2 | 3.2 | 0.00 | 0.00 | 0.00 | 30 | 1007.5 |
| 20260505193531 | 28 | 192 | 3.2 | 3.2 | 0.00 | 0.00 | 0.00 | 31 | 1007.4 |
| 20260505193028 | 28 | 113 | 1.6 | 1.6 | 0.00 | 0.00 | 0.00 | 31 | 1007.4 |
| 20260505192526 | 28 | 129 | 3.2 | 3.2 | 0.00 | 0.00 | 0.00 | 30 | 1007.5 |
| 20260505192024 | 28 | 130 | 3.2 | 4.8 | 0.00 | 0.00 | 0.00 | 30 | 1007.6 |
| 20260505191522 | 28 | 101 | 1.6 | 1.6 | 0.00 | 0.00 | 0.00 | 30 | 1007.6 |
| 20260505191020 | 28 | 143 | 4.8 | 4.8 | 0.00 | 0.00 | 0.00 | 30 | 1007.7 |
| 20260505190514 | 28 | 166 | 3.2 | 4.8 | 0.00 | 0.00 | 0.00 | 30 | 1007.8 |
| 20260505190010 | 28 | 153 | 3.2 | 3.2 | 0.00 | 0.00 | 0.00 | 32 | 1008.0 |
| 20260505185507 | 28 | 103 | 0.0 | 1.6 | 0.00 | 0.00 | 0.00 | 31 | 1007.7 |
| 20260505185003 | 27 | 97 | 1.6 | 3.2 | 0.00 | 0.00 | 0.00 | 32 | 1007.9 |
| 20260505184500 | 27 | 122 | 3.2 | 3.2 | 0.00 | 0.00 | 0.00 | 32 | 1007.9 |
| 20260505183957 | 28 | 114 | 1.6 | 1.6 | 0.00 | 0.00 | 0.00 | 32 | 1008.3 |
| 20260505183454 | 28 | 94 | 1.6 | 1.6 | 0.00 | 0.00 | 0.00 | 33 | 1008.3 |
| 20260505182950 | 28 | 179 | 3.2 | 3.2 | 0.00 | 0.00 | 0.00 | 34 | 1008.4 |
| 20260505182447 | 28 | 145 | 1.6 | 3.2 | 0.00 | 0.00 | 0.00 | 35 | 1008.3 |
| 20260505181943 | 28 | 92 | 3.2 | 3.2 | 0.00 | 0.00 | 0.00 | 34 | 1008.3 |
| 20260505181441 | 28 | 96 | 0.0 | 1.6 | 0.00 | 0.00 | 0.00 | 34 | 1008.2 |
| 20260505180938 | 28 | 172 | 1.6 | 3.2 | 0.00 | 0.00 | 0.00 | 34 | 1008.4 |
| 20260505180434 | 28 | 111 | 1.6 | 3.2 | 0.00 | 0.00 | 0.00 | 35 | 1008.4 |
| 20260505175931 | 28 | 105 | 1.6 | 3.2 | 0.00 | 0.00 | 0.00 | 35 | 1008.4 |
| 20260505175427 | 27 | 183 | 3.2 | 6.4 | 0.00 | 0.00 | 0.00 | 34 | 1008.3 |
| 20260505174924 | 28 | 160 | 3.2 | 4.8 | 0.00 | 0.00 | 0.00 | 35 | 1008.5 |
| 20260505174422 | 27 | 141 | 3.2 | 3.2 | 0.00 | 0.00 | 0.00 | 36 | 1008.7 |
| 20260505173917 | 27 | 134 | 3.2 | 4.8 | 0.00 | 0.00 | 0.00 | 36 | 1008.8 |
| 20260505173414 | 27 | 138 | 1.6 | 1.6 | 0.00 | 0.00 | 0.00 | 37 | 1008.7 |
| 20260505172911 | 27 | 116 | 1.6 | 3.2 | 0.00 | 0.00 | 0.00 | 37 | 1008.9 |
| 20260505172409 | 27 | 109 | 1.6 | 3.2 | 0.00 | 0.00 | 0.00 | 38 | 1008.8 |
| 20260505171908 | 27 | 104 | 0.0 | 0.0 | 0.00 | 0.00 | 0.00 | 41 | 1008.8 |
| 20260505171405 | 26 | 164 | 1.6 | 1.6 | 0.00 | 0.00 | 0.00 | 39 | 1009.0 |
| 20260505170902 | 26 | 153 | 1.6 | 1.6 | 0.00 | 0.00 | 0.00 | 39 | 1009.0 |
| 20260505170359 | 26 | 108 | 0.0 | 0.0 | 0.00 | 0.00 | 0.00 | 40 | 1009.2 |
| 20260505165854 | 26 | 93 | 0.0 | 0.0 | 0.00 | 0.00 | 0.00 | 40 | 1009.3 |
| 20260505165350 | 26 | 120 | 3.2 | 3.2 | 0.00 | 0.00 | 0.00 | 40 | 1009.2 |
| 20260505164846 | 26 | 109 | 1.6 | 3.2 | 0.00 | 0.00 | 0.00 | 41 | 1009.3 |
| 20260505164342 | 26 | 125 | 0.0 | 1.6 | 0.00 | 0.00 | 0.00 | 40 | 1009.4 |
| 20260505163841 | 26 | 118 | 1.6 | 1.6 | 0.00 | 0.00 | 0.00 | 42 | 1009.3 |
| 20260505163339 | 26 | 104 | 0.0 | 1.6 | 0.00 | 0.00 | 0.00 | 41 | 1009.5 |
| 20260505162838 | 26 | 115 | 1.6 | 1.6 | 0.00 | 0.00 | 0.00 | 43 | 1009.6 |
| 20260505162333 | 25 | 107 | 0.0 | 0.0 | 0.00 | 0.00 | 0.00 | 43 | 1009.5 |
| 20260505161831 | 25 | 173 | 4.8 | 9.7 | 0.00 | 0.00 | 0.00 | 43 | 1009.7 |
| 20260505161328 | 25 | 106 | 0.0 | 1.6 | 0.00 | 0.00 | 0.00 | 43 | 1009.7 |
| 20260505160825 | 25 | 114 | 1.6 | 1.6 | 0.00 | 0.00 | 0.00 | 44 | 1009.9 |
| 20260505160323 | 25 | 140 | 1.6 | 3.2 | 0.00 | 0.00 | 0.00 | 45 | 1009.8 |
| 20260505153301 | 23 | 147 | 3.2 | 3.2 | 0.00 | 0.00 | 0.00 | 46 | 1010.2 |
| 20260505152759 | 23 | 110 | 0.0 | 0.0 | 0.00 | 0.00 | 0.00 | 47 | 1010.2 |
| 20260505152256 | 23 | 113 | 0.0 | 0.0 | 0.00 | 0.00 | 0.00 | 47 | 1010.5 |
| 20260505151755 | 23 | 111 | 1.6 | 1.6 | 0.00 | 0.00 | 0.00 | 47 | 1010.3 |
| 20260505151253 | 23 | 122 | 0.0 | 0.0 | 0.00 | 0.00 | 0.00 | 47 | 1010.2 |
| 20260505150750 | 23 | 117 | 1.6 | 1.6 | 0.00 | 0.00 | 0.00 | 47 | 1010.3 |
| 20260505150247 | 23 | 139 | 1.6 | 3.2 | 0.00 | 0.00 | 0.00 | 47 | 1010.1 |
| 20260505140211 | 21 | 99 | 0.0 | 0.0 | 0.00 | 0.00 | 0.00 | 54 | 1010.6 |
| 20260505130135 | 17 | 111 | 0.0 | 0.0 | 0.00 | 0.00 | 0.00 | 65 | 1010.2 |
| 20260505124624 | 17 | 96 | 0.0 | 0.0 | 0.00 | 0.00 | 0.00 | 67 | 1010.0 |
| 20260505124121 | 16 | 96 | 0.0 | 0.0 | 0.00 | 0.00 | 0.00 | 68 | 1010.1 |
| 20260505123617 | 16 | 96 | 0.0 | 0.0 | 0.00 | 0.00 | 0.00 | 69 | 1010.0 |